Location: Choszczno
(53.1685°N, 15.4183°E)
Time: 18:10:54
(UTC+01:00)

ISS - Visible Passes

Search period start: 16 January 2019 00:00
Search period end: 26 January 2019 00:00
Orbit: 404 x 407 km, 51.6° (Epoch: 17 January)

Date Brightness Start Highest point End Pass type
(mag) Time Alt. Az. Time Alt. Az. Time Alt. Az.
23 Jan -1.3 18:37:29 10° S 18:38:06 12° S 18:38:06 12° S visible
24 Jan -1.1 19:20:30 10° SW 19:21:11 15° SW 19:21:11 15° SW visible
25 Jan -2.3 18:28:56 10° SSW 18:31:29 25° SSE 18:31:29 25° SSE visible
